Denver Centennial, CO

6:59 AM MST on November 22, 2017 (GMT -0700)
Centennial

Weather History for KAPA - February, 2013

Change the Weather History Date:

Sunday, February 24, 2013

  Actual Average Record
Temperature  
Mean Temperature 24 °F -  
Max Temperature 27 °F 42 °F 64 °F (2009)
Min Temperature 21 °F 20 °F -4 °F (2003)
Degree Days  
Heating Degree Days 41    
Month to date heating degree days 812  
Moisture  
Dew Point 22 °F    
Average Humidity 94    
Maximum Humidity 100    
Minimum Humidity 88    
Precipitation  
Precipitation 0.12 in - - ()
Month to date precipitation 0.55  
Year to date precipitation 0.68  
Sea Level Pressure  
Sea Level Pressure 29.94 in    
Wind  
Wind Speed 14 mph (North)    
Max Wind Speed 31 mph    
Max Gust Speed 39 mph    
Visibility 2 miles    
Events Fog , Snow    
Averages and records for this station are not official NWS values.
T = Trace of Precipitation, MM = Missing Value Source: NWS Daily Summary

Daily Weather History Graph

Daily Weather History Graph

Search for Another Location

Airport or City:

Trip Planner

Search our weather history database for the weather conditions in past years. The results will help you decide how hot, cold, wet, or windy it might be!

Date:

Astronomy

Feb. 24, 2013 Rise Set
Actual Time 6:39 AM MST 5:46 PM MST
Civil Twilight 6:12 AM MST 6:13 PM MST
Nautical Twilight 5:40 AM MST 6:44 PM MST
Astronomical Twilight 5:09 AM MST 7:16 PM MST
Moon 5:00 PM MST (2/24) 5:37 AM MST (2/24)
Length of Visible Light 12h 01m
Length of Day
11h 07m
Waxing Gibbous, 99% of the Moon is Illuminated
Feb 24
Waxing Gibbous
Feb 25
Full
Mar 4
Last Quarter
Mar 11
New
Mar 19
First Quarter

Hourly Weather History & Observations

Time (MST) Temp. Windchill Dew Point Humidity Pressure Visibility Wind Dir Wind Speed Gust Speed Precip Events Conditions
12:53 AM 27.0 °F 16.1 °F 26.1 °F 96% 29.72 in 5.0 mi North 12.7 mph - 0.00 in Snow Light Snow
1:53 AM 27.0 °F 17.3 °F 26.1 °F 96% 29.72 in 6.0 mi NNW 10.4 mph - 0.00 in Snow Light Snow
2:53 AM 26.1 °F 14.0 °F 26.1 °F 100% 29.70 in 6.0 mi North 15.0 mph - 0.00 in Snow Light Snow
3:53 AM 27.0 °F 18.0 °F 25.0 °F 92% 29.72 in 9.0 mi North 9.2 mph - 0.00 in Snow Light Snow
4:26 AM 26.6 °F 16.8 °F 26.6 °F 100% 29.68 in 2.5 mi North 10.4 mph - 0.00 in Snow Light Snow
4:30 AM 26.6 °F 16.8 °F 26.6 °F 100% 29.69 in 1.8 mi North 10.4 mph - 0.00 in Snow Light Snow
4:53 AM 26.1 °F 16.8 °F 25.0 °F 96% 29.75 in 1.0 mi North 9.2 mph - 0.00 in Snow Light Snow
5:53 AM 26.1 °F 17.6 °F 25.0 °F 96% 29.79 in 1.0 mi North 8.1 mph - 0.01 in Snow Light Snow
6:07 AM 26.6 °F 17.5 °F 24.8 °F 93% 29.71 in 0.8 mi North 9.2 mph - 0.00 in Snow Light Snow
6:53 AM 26.1 °F 16.8 °F 25.0 °F 96% 29.82 in 0.5 mi North 9.2 mph - 0.02 in Fog , Snow Snow
7:19 AM 26.6 °F 16.2 °F 24.8 °F 93% 29.74 in 0.2 mi North 11.5 mph - 0.01 in Fog , Snow Heavy Snow
7:53 AM 26.1 °F 16.8 °F 25.0 °F 96% 29.83 in 0.2 mi North 9.2 mph - 0.02 in Fog , Snow Heavy Snow
8:53 AM 26.1 °F 14.5 °F 25.0 °F 96% 29.86 in 0.2 mi North 13.8 mph - 0.01 in Fog , Snow Heavy Snow
9:53 AM 25.0 °F 12.2 °F 24.1 °F 96% 29.90 in 0.2 mi North 16.1 mph - 0.01 in Fog , Snow Heavy Snow
10:53 AM 24.1 °F 9.0 °F 23.0 °F 96% 29.95 in 0.2 mi North 21.9 mph - 0.01 in Fog , Snow Heavy Snow
11:53 AM 24.1 °F 8.3 °F 23.0 °F 96% 29.98 in 0.2 mi North 24.2 mph 28.8 mph 0.02 in Fog , Snow Heavy Snow
12:28 PM 23.0 °F 8.7 °F 21.2 °F 93% 29.87 in 0.2 mi North 18.4 mph 29.9 mph 0.00 in Fog , Snow Heavy Snow
12:53 PM 24.1 °F 11.5 °F 21.9 °F 91% 30.00 in 0.2 mi North 15.0 mph 23.0 mph 0.00 in Fog , Snow Heavy Snow
1:25 PM 24.8 °F 11.9 °F 21.2 °F 86% 29.88 in 0.1 mi North 16.1 mph - 0.01 in Fog , Snow Heavy Snow
1:53 PM 24.1 °F 9.4 °F 21.9 °F 91% 30.00 in 0.1 mi North 20.7 mph 26.5 mph 0.01 in Fog , Snow Heavy Snow
2:05 PM 24.8 °F 8.1 °F 21.2 °F 86% 29.88 in 0.2 mi North 28.8 mph 32.2 mph 0.00 in Fog , Snow Heavy Snow
2:53 PM 24.1 °F 8.7 °F 21.9 °F 91% 30.03 in 0.2 mi NNW 23.0 mph 28.8 mph 0.01 in Fog , Snow Snow
3:34 PM 23.0 °F 7.2 °F 21.2 °F 93% 29.92 in 0.5 mi North 23.0 mph 31.1 mph 0.00 in Fog , Snow Snow
3:43 PM 23.0 °F 7.2 °F 21.2 °F 93% 29.92 in 0.5 mi NNW 23.0 mph 28.8 mph 0.00 in Fog , Snow Snow
3:53 PM 23.0 °F 6.6 °F 21.0 °F 92% 30.06 in 0.8 mi NNW 25.3 mph - 0.00 in Snow Light Snow
4:23 PM 23.0 °F 8.0 °F 21.2 °F 93% 29.95 in 0.8 mi North 20.7 mph - 0.00 in Snow Light Snow
4:37 PM 23.0 °F 9.2 °F 21.2 °F 93% 29.96 in 0.8 mi North 17.3 mph - 0.00 in Snow Light Snow
4:53 PM 23.0 °F 8.0 °F 21.0 °F 92% 30.10 in 0.8 mi North 20.7 mph - 0.00 in Snow Light Snow
5:15 PM 23.0 °F 8.3 °F 21.2 °F 93% 29.98 in 0.5 mi North 19.6 mph - 0.00 in Fog , Snow Light Snow
5:53 PM 23.0 °F 8.3 °F 21.9 °F 96% 30.13 in 0.5 mi North 19.6 mph - 0.00 in Fog , Snow Light Snow
6:53 PM 21.9 °F 6.9 °F 21.0 °F 96% 30.17 in 1.5 mi North 19.6 mph - 0.00 in Snow Light Snow
7:53 PM 21.9 °F 9.8 °F 19.9 °F 92% 30.18 in 1.2 mi North 12.7 mph - 0.00 in Snow Light Snow
8:07 PM 21.2 °F 7.8 °F 19.4 °F 93% 30.04 in 0.8 mi North 15.0 mph 20.7 mph 0.00 in Snow Light Snow
8:53 PM 21.0 °F 8.6 °F 19.9 °F 96% 30.19 in 0.8 mi North 12.7 mph - 0.00 in Snow Light Snow
9:41 PM 21.2 °F 9.5 °F 19.4 °F 93% 30.05 in 2.0 mi North 11.5 mph - 0.00 in Snow Light Snow
9:53 PM 21.0 °F 9.3 °F 19.9 °F 96% 30.21 in 3.0 mi North 11.5 mph - 0.00 in Snow Light Snow
10:53 PM 21.0 °F 10.6 °F 19.0 °F 92% 30.20 in 6.0 mi North 9.2 mph - 0.00 in   Overcast
11:14 PM 21.2 °F 11.7 °F 19.4 °F 93% 30.03 in 7.0 mi NNW 8.1 mph - N/A   Overcast
11:53 PM 21.0 °F 14.6 °F 19.0 °F 92% 30.19 in 9.0 mi NW 4.6 mph - N/A   Overcast